Home   Weather   Alsdorf   Past weeks

Flag for Germany Past Weather in Alsdorf, North Rhine-Westphalia, Germany — Yesterday and Last 2 Weeks

Now
52 °F

Scattered clouds.


Feels Like: 49 °F
Forecast: 30 / 51 °F
Wind: 8 mph from Northwest

Location: Geilenkirchen Airport

Current Time: Apr 26, 2017 at 5:56:09 pm

Latest Report: Apr 26, 2017 at 4:50 pm


Visibility: N/A

Pressure: 29.92 "Hg

Humidity: 38%

Dew Point: 27 °F

Location of AlsdorfLocation

Past Weather in Alsdorf — Graph

°F

Alsdorf Temperature Yesterday

Maximum temperature yesterday: 50 °F (at 12:50 am)
Minimum temperature yesterday: 37 °F (at 11:50 pm)
Average temperature yesterday: 45 °F

High & Low Weather Summary for the Past Weeks

 TemperatureHumidityPressure
High59 °F (Apr 12, 5:50 pm)93% (Apr 13, 6:50 am)30.66 "Hg (Apr 13, 6:50 am)
Low27 °F (Apr 20, 3:50 am)33% (Apr 20, 4:50 pm)29.74 "Hg (Apr 25, 12:50 am)
Average45 °F65%30.19 "Hg
* Reported Apr 11 3:50 pm — Apr 26 3:50 pm, Alsdorf, Weather by CustomWeather, © 2017

Note: Actual official high and low records may vary slightly from our data, if they occured in-between our weather recording intervals... More about our weather records

Advertising

Alsdorf Weather History for the Previous 24 Hours

Scroll right to see more
 ConditionsComfort  
Time TempWeatherWind HumidityBarometerVisibility
3:50 pm
Wed, Apr 26
52 °FSunny.9 mph41%29.92 "Hg10 mi
2:50 pm52 °FScattered clouds.7 mph38%29.92 "HgN/A
1:50 pm50 °FScattered clouds.9 mph43%29.92 "HgN/A
12:50 pm48 °FScattered clouds.5 mph54%29.92 "HgN/A
12:09 pm46 °FSprinkles. Partly sunny.7 mph57%29.92 "HgN/A
12:03 pm46 °FSprinkles. Partly sunny.8 mph57%29.92 "HgN/A
11:50 am48 °FPartly sunny.6 mph58%29.92 "HgN/A
10:50 am46 °FPartly sunny.7 mph66%29.89 "HgN/A
9:50 am43 °FScattered clouds.9 mph76%29.89 "HgN/A
8:50 am41 °FScattered clouds.12 mph76%29.89 "HgN/A
7:50 am39 °FPartly sunny.8 mph75%29.89 "HgN/A
6:50 am36 °FPassing clouds.6 mph81%29.86 "HgN/A
5:50 am36 °FPassing clouds.7 mph81%29.86 "HgN/A
4:50 am36 °FClear.7 mph81%29.86 "Hg10 mi
3:50 am36 °FClear.2 mph81%29.86 "Hg10 mi
2:50 am32 °FPassing clouds.2 mph87%29.86 "HgN/A
1:50 am34 °FPassing clouds.2 mph81%29.86 "HgN/A
12:50 am36 °FPassing clouds.2 mph75%29.86 "HgN/A
11:50 pm
Tue, Apr 25
37 °FPassing clouds.1 mph75%29.86 "HgN/A
10:50 pm39 °FPassing clouds.5 mph65%29.86 "HgN/A
9:50 pm41 °FPassing clouds.6 mph57%29.86 "HgN/A
8:50 pm45 °FPassing clouds.9 mph53%29.86 "HgN/A
7:50 pm46 °FBroken clouds.8 mph62%29.83 "HgN/A
6:50 pm46 °FScattered clouds.9 mph62%29.86 "HgN/A
5:50 pm48 °FScattered clouds.8 mph58%29.83 "HgN/A
Weather by CustomWeather, © 2017

See weather overviewHow to use our weather pages